[[{"header":{"parameterUnit":"m.s-1","parameterCategory":1,"la1":30.2991,"la2":30.254,"lo1":-89.0895,"lo2":-89.0444,"dy":0.0017,"dx":0.0017,"nx":28,"ny":28,"refTime":"2024-06-01T03:00:00:Z","depth":0,"parameterNumber":2,"parameterNumberName":"U-component_of_WINDS"},"data":[0,0,0,0,0,0,0,0,0,0,0,0,0,0,0,0,0,0,0,0,0,0,0,0,0,0,0,0,0,0,0,0,0,0,0,0,0,0,0,0,0,0,0,0,0,0,0,0,0,0,0,0,0,0,0,0,0,0,-1.9688,-1.969,0,-1.9846,-1.9847,-1.9849,-1.9897,-1.9896,-1.9895,-1.9894,-2.0056,-2.0061,-2.0066,0,0,0,0,0,0,0,0,0,0,0,0,0,-1.9429,-1.9433,-1.9688,-1.969,-1.9692,-1.9845,-1.9848,-1.985,-1.9897,-1.9896,-1.9895,-1.9894,-2.0055,-2.006,-2.0067,0,0,0,0,0,0,0,0,0,0,0,0,0,-1.9559,-1.9435,-1.9688,-1.9734,-1.974,-1.9845,-1.9848,-1.985,-1.9897,-1.9896,-1.9895,-1.9894,-2.0053,-2.006,-2.0067,-2.0138,0,0,-2.0091,-2.0094,0,0,0,0,0,0,0,0,-1.9552,-1.9569,-1.9725,-1.9731,-1.9738,-1.985,-1.9815,-1.9947,-1.9897,-1.9837,-1.9894,-1.9893,-1.9989,-2.0001,-2.0034,-2.0145,-2.0152,-2.0091,-2.0096,-2.0099,-2.0101,0,0,0,0,0,0,0,-1.9543,-1.9562,-1.975,-1.9727,-1.9735,-1.9747,-1.9764,-1.9841,-1.9918,-1.9843,-1.9846,-1.9864,-1.9992,-2.0026,-2.0038,-2.0155,-2.0091,-2.0098,-2.0102,-2.0105,-2.0333,-2.0334,0,0,0,0,0,0,-1.9526,-1.9554,-1.9745,-1.9755,-1.964,-1.9753,-1.9772,-1.9815,-1.9917,-1.9931,-1.9865,-1.9866,-2.0014,-2.0029,-2.0044,-2.0133,-2.0099,-2.0106,-2.011,-2.0331,-2.0333,-2.0335,0,0,0,0,0,0,-1.952,-1.9542,-1.9739,-1.9656,-1.9682,-1.9758,-1.9807,-1.9819,-1.9854,-1.9934,-1.9948,-1.9886,-2.0014,-2.0033,-2.0114,-2.0139,-2.0109,-2.0116,-2.033,-2.0332,-2.0334,-2.0312,0,0,0,0,0,0,-1.9512,-1.954,-1.9567,-1.9656,-1.9686,-1.9807,-1.9808,-1.9823,-1.9866,-1.9869,-1.9958,-1.9971,-2.0014,-2.0103,-2.0122,-2.0149,-2.0122,-2.0328,-2.0331,-2.0333,-2.0311,-2.0313,-2.0315,0,0,0,0,0,-1.9503,-1.9555,-1.9568,-1.9591,-1.9722,-1.9808,-1.9825,-1.9873,-1.9868,-1.9896,-1.9948,-1.9968,-2.0134,-2.0111,-2.0132,-2.0162,-2.0326,-2.033,-2.0333,-2.031,-2.0313,-2.0315,0,0,0,0,0,0,-1.9467,-1.9567,-1.9583,-1.9666,-1.9728,-1.9816,-1.9853,-1.9875,-1.994,-1.994,-1.9997,-2.0017,-2.0094,-2.0137,-2.0109,-2.0236,-2.0231,-2.0239,-2.0205,-2.0209,-2.0211,-2.0199,-2.0129,0,0,0,0,0,-1.9468,-1.953,-1.9614,-1.9679,-1.9709,-1.9775,-1.9815,-1.9847,-1.9914,-1.994,-1.9998,-2.0062,-2.0129,-2.0171,-2.0237,-2.0317,-2.0338,-2.0349,-2.0351,-2.0353,-2.0359,-2.0405,-2.0411,-2.0346,-2.0346,-2.0346,0,0,-1.9472,-1.9535,-1.957,-1.9673,-1.9725,-1.9787,-1.9797,-1.9863,-1.991,-1.995,-2.003,-2.0075,-2.0151,-2.0232,-2.027,-2.027,-2.0381,-2.0357,-2.0357,-2.0363,-2.0409,-2.0415,-2.042,-2.0348,-2.0348,-2.0348,0,0,-1.9511,-1.9565,-1.9624,-1.9676,-1.9755,-1.9799,-1.9813,-1.9898,-1.9929,-2.0011,-2.0042,-2.0099,-2.0212,-2.0265,-2.0306,-2.0366,-2.0387,-2.0386,-2.0397,-2.0441,-2.0446,-2.0451,-2.0472,-2.0479,-2.0392,-2.0392,-2.0392,0,-1.9506,-1.9601,-1.9652,-1.9716,-1.9761,-1.98,-1.9861,-1.9909,-2.0005,-2.0035,-2.0033,-2.0176,-2.023,-2.0324,-2.0338,-2.0371,-2.0389,-2.0376,-2.0442,-2.0447,-2.0452,-2.0473,-2.0481,-2.0391,-2.0391,-2.0391,-2.0391,0,-1.9591,-1.9657,-1.9696,-1.9787,-1.9836,-1.9898,-1.9959,-2.0002,-2.003,-2.0074,-2.0156,-2.0222,-2.0302,-2.0327,-2.0355,-2.0425,-2.0422,-2.043,-2.0426,-2.0457,-2.0477,-2.0486,-2.039,-2.039,-2.0391,-2.0391,0,0,-1.9612,-1.9731,-1.9744,-1.9786,-1.9876,-1.9928,-1.9992,-2.007,-2.0106,-2.0171,-2.0226,-2.0321,-2.0329,-2.0377,-2.0411,-2.045,-2.0492,-2.0453,-2.0456,-2.0458,-2.0574,-2.0567,-2.0576,-2.0507,-2.0509,-2.051,-2.0568,0,-1.9662,-1.9778,-1.9825,-1.9919,-1.998,-2.0019,-2.0075,-2.0136,-2.0179,-2.0238,-2.0286,-2.0352,-2.0358,-2.0386,-2.0426,-2.0478,-2.0516,-2.0475,-2.0559,-2.0561,-2.0538,-2.0586,-2.058,-2.0631,-2.0576,-2.0577,-2.0578,0,-1.9736,-1.9801,-1.9901,-1.9984,-2.0011,-2.006,-2.0136,-2.0191,-2.0262,-2.029,-2.0343,-2.0375,-2.0444,-2.0435,-2.0531,-2.0502,-2.0539,-2.057,-2.0574,-2.0583,-2.0571,-2.0597,-2.0648,-2.0656,-2.0592,-2.0591,-2.059,0,-1.974,-1.9854,-1.9928,-1.9963,-2.0061,-2.0095,-2.0137,-2.0207,-2.025,-2.0317,-2.0346,-2.0419,-2.0459,-2.0515,-2.0566,-2.0555,-2.0657,-2.0653,-2.0683,-2.0682,-2.0703,-2.0701,-2.076,-2.0727,-2.0727,-2.0727,-2.0727,0,-1.9791,-1.9851,-1.9931,-1.9977,-2.0045,-2.0099,-2.0165,-2.021,-2.0271,-2.0327,-2.0365,-2.0416,-2.0481,-2.054,-2.0581,-2.0654,-2.0672,-2.0698,-2.0708,-2.0694,-2.0691,-2.0719,-2.0717,-2.0729,-2.0729,-2.0728,-2.0728,0,-1.9808,-1.9864,-1.9948,-2.0034,-2.0057,-2.0103,-2.0177,-2.0223,-2.0268,-2.0337,-2.0357,-2.0428,-2.05,-2.0557,-2.0651,-2.0678,-2.0755,-2.0767,-2.0731,-2.0736,-2.0764,-2.076,-2.0843,-2.0857,-2.0814,-2.0815,-2.0815,0,-1.9836,-1.9883,-1.9974,-2.0014,-2.0056,-2.012,-2.0165,-2.022,-2.0265,-2.0349,-2.0385,-2.046,-2.0523,-2.0636,-2.0696,-2.0768,-2.0782,-2.0806,-2.0793,-2.0778,-2.0782,-2.0778,-2.0783,-2.0807,-2.0807,-2.0807,-2.0807,0,-1.9882,-1.9907,-1.997,-2.0043,-2.0096,-2.0156,-2.0217,-2.0248,-2.0314,-2.0363,-2.0437,-2.0486,-2.0582,-2.0656,-2.0734,-2.0779,-2.0804,-2.0811,-2.0822,-2.0809,-2.0786,-2.0798,-2.0735,-2.0809,-2.0809,-2.0809,-2.0809,-2.0809,-1.9905,-1.9948,-2.0019,-2.0089,-2.014,-2.0197,-2.0244,-2.0295,-2.0357,-2.044,-2.0469,-2.0545,-2.0615,-2.0723,-2.0768,-2.0828,-2.083,-2.0846,-2.085,-2.0853,-2.0851,-2.0776,-2.0843,-2.0843,-2.0843,-2.0843,-2.0843,0,-1.9952,-2.0,-2.0063,-2.0147,-2.0201,-2.0221,-2.0289,-2.0334,-2.04,-2.0463,-2.0524,-2.0609,-2.0681,-2.0746,-2.0822,-2.0857,-2.0871,-2.0875,-2.0873,-2.0883,-2.0845,-2.0828,-2.0863,-2.0863,-2.0863,-2.0863,-2.0863,-2.0863,-1.9983,-2.0057,-2.0091,-2.0191,-2.0239,-2.0313,-2.0351,-2.0403,-2.0453,-2.0547,-2.0606,-2.0649,-2.0713,-2.0793,-2.086,-2.0877,-2.0903,-2.0904,-2.0925,-2.0888,-2.0886,-2.0883,-2.0867,-2.0909,-2.091,-2.0958,-2.0958,-2.0958]},{"header":{"parameterUnit":"m.s-1","parameterCategory":1,"la1":30.2991,"la2":30.254,"lo1":-89.0895,"lo2":-89.0444,"dy":0.0017,"dx":0.0017,"nx":28,"ny":28,"refTime":"2024-06-01T03:00:00:Z","depth":0,"parameterNumber":3,"parameterNumberName":"V-component_of_WINDS"},"data":[0,0,0,0,0,0,0,0,0,0,0,0,0,0,0,0,0,0,0,0,0,0,0,0,0,0,0,0,0,0,0,0,0,0,0,0,0,0,0,0,0,0,0,0,0,0,0,0,0,0,0,0,0,0,0,0,0,0,4.1988,4.1989,0,4.2101,4.2103,4.2104,4.2096,4.2094,4.2092,4.2091,4.2203,4.2207,4.2211,0,0,0,0,0,0,0,0,0,0,0,0,0,4.176,4.1764,4.1988,4.1989,4.1991,4.2101,4.2103,4.2104,4.2096,4.2094,4.2092,4.209,4.2201,4.2206,4.2212,0,0,0,0,0,0,0,0,0,0,0,0,0,4.1864,4.1765,4.1988,4.2,4.2002,4.2101,4.2103,4.2105,4.2096,4.2094,4.2091,4.2089,4.2199,4.2206,4.2213,4.2305,0,0,4.2233,4.2236,0,0,0,0,0,0,0,0,4.1858,4.1873,4.1997,4.1999,4.2002,4.2082,4.2063,4.2172,4.2097,4.206,4.2091,4.2088,4.2164,4.2174,4.22,4.231,4.2315,4.2234,4.2238,4.2241,4.2243,0,0,0,0,0,0,0,4.1851,4.1868,4.2033,4.1999,4.2002,4.1998,4.201,4.2084,4.2125,4.2063,4.2063,4.2077,4.2165,4.2194,4.2203,4.2316,4.2234,4.224,4.2244,4.2247,4.2506,4.2508,0,0,0,0,0,0,4.1842,4.1862,4.2029,4.2036,4.1923,4.2004,4.2018,4.2059,4.2124,4.2132,4.2079,4.2076,4.2183,4.2195,4.2207,4.2318,4.2241,4.2247,4.2251,4.2503,4.2506,4.2509,0,0,0,0,0,0,4.1837,4.1857,4.2024,4.1949,4.197,4.2011,4.2057,4.2062,4.2091,4.2136,4.2143,4.2101,4.2182,4.2197,4.228,4.2322,4.225,4.2257,4.25,4.2504,4.2508,4.2541,0,0,0,0,0,0,4.183,4.1855,4.1892,4.195,4.1974,4.2098,4.2059,4.2066,4.2103,4.2101,4.2158,4.2165,4.2181,4.227,4.2287,4.233,4.2262,4.2496,4.2501,4.2506,4.2537,4.2546,4.2554,0,0,0,0,0,4.1822,4.1896,4.1894,4.1914,4.2021,4.21,4.2114,4.2132,4.2107,4.2143,4.2171,4.2164,4.2315,4.2279,4.2298,4.2343,4.2493,4.25,4.2506,4.2533,4.2544,4.2554,0,0,0,0,0,0,4.1841,4.1904,4.1902,4.1997,4.2044,4.2099,4.2145,4.2143,4.2197,4.2192,4.221,4.2223,4.2307,4.2333,4.2292,4.2435,4.24,4.2411,4.2414,4.2426,4.2434,4.2426,4.2268,0,0,0,0,0,4.1856,4.1917,4.1968,4.2047,4.207,4.2104,4.2139,4.2149,4.2197,4.2216,4.2251,4.2296,4.2354,4.2391,4.2447,4.2541,4.2552,4.2581,4.259,4.2597,4.2605,4.2655,4.2668,4.253,4.253,4.253,0,0,4.1888,4.193,4.1967,4.2052,4.2089,4.2149,4.212,4.2186,4.223,4.2225,4.2306,4.2333,4.2385,4.2474,4.2515,4.2498,4.2646,4.2605,4.261,4.2615,4.2663,4.2676,4.2688,4.2534,4.2533,4.2533,0,0,4.1977,4.2016,4.2085,4.2123,4.218,4.2201,4.2218,4.2273,4.2291,4.2373,4.237,4.2422,4.2522,4.2559,4.259,4.2692,4.2686,4.271,4.2755,4.2804,4.2815,4.2824,4.2859,4.2872,4.2718,4.2718,4.2718,0,4.2009,4.2102,4.2121,4.2187,4.2223,4.2223,4.2292,4.2327,4.2399,4.2423,4.2404,4.2528,4.2563,4.266,4.2685,4.2711,4.2729,4.2703,4.2812,4.2822,4.2831,4.2865,4.2878,4.2721,4.272,4.272,4.272,0,4.2138,4.2202,4.2251,4.2321,4.2363,4.243,4.2458,4.2498,4.2503,4.2526,4.2608,4.2651,4.2714,4.2738,4.2744,4.2835,4.2823,4.2808,4.2774,4.2846,4.2878,4.2891,4.2724,4.2723,4.2723,4.2722,0,0,4.2242,4.2321,4.2339,4.237,4.2432,4.2481,4.2547,4.2611,4.2644,4.2693,4.2748,4.2831,4.2818,4.2854,4.2864,4.2907,4.2983,4.2886,4.2888,4.2902,4.3084,4.3094,4.3109,4.298,4.2982,4.2984,4.3079,0,4.2336,4.2456,4.2474,4.2578,4.2636,4.2636,4.2694,4.2737,4.276,4.2811,4.2836,4.2895,4.2873,4.2895,4.2937,4.2965,4.3019,4.2958,4.3029,4.3032,4.3015,4.3126,4.3137,4.3225,4.3092,4.3094,4.3096,0,4.2463,4.2516,4.2626,4.2679,4.2704,4.2756,4.2814,4.2864,4.2913,4.2926,4.2966,4.2971,4.3038,4.3001,4.3093,4.3051,4.3081,4.3099,4.3102,4.3109,4.3067,4.3134,4.3253,4.3266,4.3115,4.3114,4.3112,0,4.2526,4.2625,4.2703,4.273,4.2794,4.283,4.2858,4.2904,4.2941,4.2991,4.3015,4.3073,4.3104,4.3147,4.3167,4.3139,4.3257,4.3222,4.3268,4.3268,4.3293,4.3291,4.3417,4.3314,4.3314,4.3313,4.3313,0,4.2629,4.2696,4.2732,4.2781,4.2855,4.2875,4.2947,4.2974,4.3015,4.3067,4.307,4.3118,4.3142,4.3193,4.3209,4.3281,4.3295,4.3307,4.331,4.3306,4.3305,4.3326,4.332,4.3317,4.3316,4.3315,4.3315,0,4.2712,4.2739,4.2825,4.2878,4.2893,4.2946,4.2991,4.3036,4.3059,4.3125,4.3141,4.3176,4.3237,4.3261,4.3335,4.3345,4.3428,4.3427,4.3412,4.3413,4.3457,4.3452,4.3601,4.3621,4.3505,4.3506,4.3507,0,4.2776,4.2827,4.2886,4.2922,4.2951,4.3009,4.3046,4.3067,4.3105,4.3163,4.3202,4.3263,4.3312,4.3409,4.344,4.3496,4.3496,4.3544,4.3504,4.3498,4.3495,4.3491,4.3496,4.3551,4.3552,4.3553,4.3554,0,4.2885,4.2896,4.295,4.3009,4.3053,4.31,4.3146,4.3174,4.3201,4.3244,4.3307,4.3345,4.3421,4.3481,4.3539,4.3566,4.3564,4.3566,4.358,4.3576,4.3565,4.357,4.3431,4.3562,4.3561,4.3561,4.356,4.356,4.296,4.3005,4.3053,4.3113,4.315,4.3192,4.3237,4.3266,4.3319,4.3382,4.3391,4.3458,4.3503,4.3581,4.3611,4.3662,4.3649,4.3669,4.3674,4.3678,4.3681,4.3557,4.3673,4.3672,4.3672,4.3672,4.3672,0,4.3068,4.3099,4.3154,4.3218,4.3264,4.326,4.3309,4.3348,4.3407,4.3451,4.35,4.3571,4.3628,4.3664,4.3722,4.3756,4.3756,4.377,4.3767,4.3773,4.3689,4.3671,4.3769,4.3769,4.3769,4.3769,4.3769,4.3769,4.313,4.3206,4.3222,4.3316,4.3346,4.3412,4.3441,4.3479,4.3514,4.3593,4.3642,4.3665,4.3704,4.3765,4.3817,4.3826,4.3846,4.3861,4.3869,4.3789,4.3779,4.377,4.3753,4.3866,4.3866,4.3948,4.3949,4.395]}]]